Beaufort, SC

9:25 AM EST on February 23, 2017 (GMT -0500)
Beaufort Marine Corps Air Station

Weather History for KNBC - June, 2012

Change the Weather History Date:

Friday, June 15, 2012

  Actual Average Record
Temperature  
Mean Temperature 76 °F -  
Max Temperature 84 °F 87 °F 99 °F (1964)
Min Temperature 69 °F 70 °F 56 °F (1933)
Cooling Degree Days 12    
Growing Degree Days 26 (Base 50)    
Moisture  
Dew Point 61 °F    
Average Humidity 63    
Maximum Humidity 84    
Minimum Humidity 39    
Precipitation  
Precipitation 0.00 in - - ()
Sea Level Pressure  
Sea Level Pressure 30.11 in    
Wind  
Wind Speed 7 mph (ENE)    
Max Wind Speed 15 mph    
Max Gust Speed 21 mph    
Visibility 10 miles    
Events      
Averages and records for this station are not official NWS values.
T = Trace of Precipitation, MM = Missing Value Source: NWS Daily Summary

Daily Weather History Graph

Daily Weather History Graph

Search for Another Location

Airport or City:

Trip Planner

Search our weather history database for the weather conditions in past years. The results will help you decide how hot, cold, wet, or windy it might be!

Date:

Astronomy

Jun. 15, 2012 Rise Set
Actual Time 6:15 AM EDT 8:31 PM EDT
Civil Twilight 5:46 AM EDT 9:00 PM EDT
Nautical Twilight 5:11 AM EDT 9:35 PM EDT
Astronomical Twilight 4:34 AM EDT 10:13 PM EDT
Moon 3:20 AM EDT (6/15) 5:16 PM EDT (6/15)
Length of Visible Light 15h 13m
Length of Day
14h 16m
Waning Crescent, 14% of the Moon is Illuminated
Jun 15
Waning Crescent
Jun 19
New
Jun 26
First Quarter
Jul 3
Full
Jul 10
Last Quarter

Hourly Weather History & Observations

Time (EDT) Temp. Heat Index Dew Point Humidity Pressure Visibility Wind Dir Wind Speed Gust Speed Precip Events Conditions
12:56 AM 72.0 °F - 66.0 °F 81% 30.09 in 10.0 mi NNE 4.6 mph - N/A   Clear
1:56 AM 72.0 °F - 66.9 °F 84% 30.07 in 10.0 mi North 3.5 mph - N/A   Scattered Clouds
2:56 AM 72.0 °F - 66.0 °F 81% 30.06 in 10.0 mi NE 5.8 mph - N/A   Scattered Clouds
3:56 AM 70.0 °F - 64.0 °F 81% 30.06 in 10.0 mi NE 9.2 mph - N/A   Clear
4:56 AM 69.1 °F - 63.0 °F 81% 30.06 in 10.0 mi ENE 6.9 mph - N/A   Clear
5:56 AM 70.0 °F - 60.1 °F 71% 30.08 in 10.0 mi ENE 5.8 mph - N/A   Clear
6:56 AM 69.1 °F - 60.1 °F 73% 30.11 in 10.0 mi NE 8.1 mph - N/A   Scattered Clouds
7:56 AM 70.0 °F - 55.9 °F 61% 30.13 in 10.0 mi NE 11.5 mph - N/A   Scattered Clouds
8:56 AM 73.0 °F - 57.0 °F 57% 30.15 in 10.0 mi NE 15.0 mph 20.7 mph N/A   Scattered Clouds
9:56 AM 75.0 °F - 57.0 °F 53% 30.15 in 10.0 mi NNE 10.4 mph - N/A   Scattered Clouds
10:56 AM 77.0 °F - 54.0 °F 45% 30.15 in 10.0 mi NE 9.2 mph - N/A   Scattered Clouds
11:56 AM 79.0 °F - 57.9 °F 48% 30.13 in 10.0 mi NNE 6.9 mph - N/A   Clear
12:56 PM 81.0 °F 81.3 °F 59.0 °F 47% 30.12 in 10.0 mi North 9.2 mph - N/A   Clear
1:56 PM 82.9 °F 82.4 °F 57.0 °F 41% 30.11 in 10.0 mi ENE 12.7 mph 19.6 mph N/A   Clear
2:56 PM 82.9 °F 82.1 °F 55.9 °F 39% 30.11 in 10.0 mi NNE 9.2 mph - N/A   Clear
3:56 PM 84.0 °F 83.5 °F 57.9 °F 41% 30.11 in 10.0 mi NE 9.2 mph - N/A   Scattered Clouds
4:56 PM 79.0 °F - 62.1 °F 56% 30.12 in 10.0 mi SE 10.4 mph 18.4 mph N/A   Clear
5:56 PM 79.0 °F - 64.9 °F 62% 30.12 in 10.0 mi SE 6.9 mph - N/A   Clear
6:56 PM 79.0 °F - 63.0 °F 58% 30.12 in 10.0 mi ESE 6.9 mph - N/A   Partly Cloudy
7:56 PM 77.0 °F - 66.0 °F 69% 30.13 in 10.0 mi ESE 10.4 mph - N/A   Clear
8:56 PM 75.9 °F - 64.9 °F 69% 30.14 in 10.0 mi ESE 8.1 mph - N/A   Clear
9:56 PM 75.0 °F - 64.0 °F 69% 30.14 in 10.0 mi East 6.9 mph - N/A   Clear
10:56 PM 75.0 °F - 64.9 °F 71% 30.15 in 10.0 mi East 8.1 mph - N/A   Clear
11:56 PM 73.0 °F - 64.0 °F 73% 30.15 in 10.0 mi ENE 4.6 mph - N/A   Clear